Starlink 6118

operational
NORAD ID: 57106 Int'l Des: 2023-090 Owner: SPXS Country: US Constellation: starlink
LEOCIRCULAR

Über Starlink 6118

Beschreibung wird geladen...

Live-Position

3D-Globus wird geladen...

Nächste Überflüge

Höhenverlauf

Altitude vs Time

uPlot chart will show altitude changes over time

Zweizeiliger Elementsatz

1 57106U 23090F 25303.87749529 -.00000026 00000-0 13146-4 0 9995
2 57106 43.0046 260.2349 0001192 272.8509 87.2197 15.02536822130888
Epoch: 30. Okt. 2025 • Age: 8 hours

Aktueller Status

Höhe 561.5 km
Geschwindigkeit 7.59 km/s
Subsatellitenpunkt 36.35°N, 169.24°W
Startdatum 23. Juni 2023
Alter 2.3 years
Typ internet

Technische Details

Klassifizierung Payload
Masse 305.00 kg
Trockenmasse 290.00 kg
Gesamtmasse 305.00 kg
Länge 0.20 m
Durchmesser 2.80 m
Spannweite 9.00 m
Form Box + pan
Hersteller SPXS
Bus-Typ Starlink
Phasenstatus In Orbit
Besitzer/Staat SPXS/US

Große Konstellationen

Loading constellations...